User: anonymous   Login
Location: Unspecified
(0.0000°N, 0.0000°E)
Time: 08:59:26
(UTC+00:00)
Language:

STARLINK-31570 - Orbit

View from above orbital plane
View from above orbital plane
View from above satellite
View from above satellite

Ground track
Ground track

The orbit is defined by the following mean orbital elements,

1 59324U          26145.38206718 +.00000000 +00000-0 +61738-4 0 00008
2 59324  43.0030 114.3450 0001296 269.4885  90.5818 15.27581646    09
Epoch (UTC): 25 May 2026 09:10:10
Eccentricity: 0.0001296
inclination: 43.0030°
perigee height: 482 km
apogee height: 484 km
right ascension of ascending node: 114.3450°
argument of perigee: 269.4885°
revolutions per day: 15.27581646
mean anomaly at epoch: 90.5818°

The dashed part of the orbit path shows where the satellite is in the earth's shadow,  

DLR